Location: Hausen
(51.3804°N, 10.3782°E)
Time: 11:19:47
(UTC+00:00)

Daily predictions for brighter satellites

Satellite Brightness Start Highest point End
(mag) Time Altitude Azimuth Time Altitude Azimuth Time Altitude Azimuth
APEX 4.5 18:30:57 10° NNW 18:37:39 85° WSW 18:43:03 10° SSE
Meteor 1-16 Rocket 4.2 18:34:04 10° S 18:39:30 71° E 18:45:08 10° NNE
Cosmos 614 Rocket 4.1 18:34:44 10° S 18:39:47 52° ESE 18:44:51 10° NNE
CZ-2C R/B 2.8 18:35:09 10° SSE 18:39:58 78° ENE 18:44:43 10° NNW
STARLINK-1239 3.7 18:36:55 10° WNW 18:41:06 82° NNE 18:45:15 10° ESE
ATLAS CENTAUR R/B 3.4 18:39:06 10° NNW 18:41:45 17° NNE 18:44:19 10° ENE
MONITOR-E 3.7 18:40:40 10° SSE 18:43:17 73° ENE 18:45:56 10° N
STARLINK-29 4.2 18:41:08 10° SSW 18:43:47 24° SE 18:46:28 10° E
Cosmos 1190 Rocket 4.4 18:40:53 10° S 18:45:52 43° ESE 18:50:51 10° NE
STARLINK-1240 3.7 18:41:55 10° WNW 18:46:05 85° NNE 18:50:14 10° ESE
SJ-6B 2.9 18:42:22 10° SSE 18:46:28 69° ENE 18:50:36 10° N
Resurs 1-3 4.2 18:42:51 10° SE 18:46:56 39° ENE 18:51:03 10° N
Aureole 1 Rocket 4.1 18:39:59 10° S 18:47:00 57° ESE 18:52:28 10° NNE
BREEZE-M DEB (TANK) 4.3 18:40:17 10° W 18:47:44 52° SSW 18:50:41 10° SE
Cosmos 1300 4.0 18:45:18 10° SE 18:48:11 21° E 18:51:06 10° NE
Cosmos 2369 Rocket 4.3 18:44:44 10° NW 18:49:29 28° WSW 18:54:11 10° SSW
STARLINK-1216 3.6 18:46:53 10° WNW 18:51:02 87° N 18:55:08 10° ESE
STARLINK-60 3.3 18:48:03 10° SW 18:51:13 48° SSE 18:54:24 10° ENE
CZ-2C R/B 4.3 18:49:21 10° NNE 18:53:46 38° E 18:58:03 10° SSE
STARLINK-1237 3.6 18:51:51 10° WNW 18:56:00 90° N 18:59:54 12° ESE
Cosmos 2058 Rocket 3.3 18:56:08 10° S 19:00:32 52° E 19:04:54 10° NNE
STARLINK-1202 3.6 18:56:51 10° WNW 19:01:00 88° SSW 19:04:42 13° ESE
STARLINK-1228 3.9 18:59:15 10° W 19:01:52 32° SSW 19:04:17 11° SSE
Cosmos 1461 3.7 18:58:10 10° NW 19:02:35 55° SW 19:07:08 10° SSE
Cosmos 1726 Rocket 3.5 18:58:44 10° S 19:03:10 82° E 19:07:38 10° NNE
SL-08 RB Rocket 3.7 18:58:55 10° SSE 19:03:29 86° ENE 19:08:10 10° NNW
Cosmos 921 Rocket 2.9 19:00:37 10° NNW 19:04:50 84° ENE 19:09:02 10° SSE
Cosmos 1703 4.0 19:01:11 10° NNW 19:05:05 57° W 19:08:58 10° S
Cosmos 2341 Rocket 4.2 18:59:24 10° N 19:05:43 59° ENE 19:12:01 10° SSE
ADEOS Rocket 4.5 19:01:35 10° N 19:07:34 42° WNW 19:13:00 10° SW
SL-4 R/B 1.5 19:04:12 10° WSW 19:07:35 70° SSE 19:10:57 11° E
Cosmos 1726 3.5 19:04:19 10° SSW 19:07:54 44° WNW 19:11:30 10° N
CZ-4C R/B 3.7 19:03:14 10° NW 19:09:15 37° NNE 19:16:16 10° E
STARLINK-1246 3.6 19:06:48 10° WNW 19:10:57 82° SSW 19:14:15 16° ESE
Cosmos 407 Rocket 3.4 19:06:15 10° SSW 19:11:23 78° ESE 19:16:32 10° NNE
RESURS DK-1 3.9 19:08:06 10° NNW 19:11:33 24° NE 19:14:21 13° E
Cosmos 1908 3.4 19:07:42 10° SSW 19:11:35 80° WNW 19:15:31 10° N
Cosmos 1340 Rocket 2.8 19:08:02 10° S 19:12:03 68° E 19:16:03 10° NNE
STARLINK-1201 3.7 19:09:03 10° WNW 19:12:11 44° SSW 19:14:33 16° SE
FREGAT/IRIS 4.1 19:09:49 10° SSW 19:12:20 33° W 19:14:53 10° NNW
Cosmos 2228 3.4 19:09:47 10° SSW 19:14:06 68° WNW 19:18:28 10° N
Cosmos 676 Rocket 4.3 19:10:03 10° S 19:15:04 46° ESE 19:20:04 10° NE
STARLINK-1224 3.6 19:11:48 10° WNW 19:15:57 78° SSW 19:19:04 17° ESE
Cosmos 2218 Rocket 4.4 19:10:54 10° N 19:16:52 46° ENE 19:22:17 13° SE
STARLINK-1203 3.7 19:13:56 10° WNW 19:18:09 74° SSW 19:21:13 18° ESE
Cosmos 1943 4.1 19:13:00 10° SW 19:18:34 54° NW 19:24:10 10° NNE
Cosmos 2058 3.7 19:14:56 10° N 19:18:40 32° ENE 19:21:10 17° SE
Cosmos 220 Rocket 4.2 19:14:37 10° NNW 19:18:54 54° ENE 19:22:11 16° SE
MetOp-A 4.2 19:15:04 10° SSE 19:20:26 89° ENE 19:25:51 10° NNW
STARLINK-1225 3.6 19:16:48 10° WNW 19:20:56 75° SSW 19:23:51 19° ESE
MOS 1 Rocket 3.8 19:16:13 10° NNE 19:21:30 52° E 19:26:49 10° S
Resurs 01 Rocket 1.7 19:17:43 12° SSE 19:21:47 60° ENE 19:26:09 10° N
CZ-2C R/B 2.8 19:17:50 10° NNE 19:22:50 47° E 19:27:52 10° S
STARLINK-52 3.4 19:20:59 10° SW 19:24:01 40° SSE 19:25:57 19° E
STARLINK-1230 3.7 19:21:46 10° WNW 19:25:54 72° SSW 19:28:37 20° ESE
Nadezhda 1 Rocket 4.2 19:20:06 10° SSW 19:26:30 79° W 19:32:51 10° N
Cosmos 962 Rocket 4.4 19:20:27 10° N 19:26:39 85° E 19:32:47 10° S
BREEZE M DEB (TANK) 3.8 19:23:51 10° SSW 19:27:02 30° SE 19:34:39 10° ENE
Cosmos 1812 Rocket 4.3 19:25:20 16° SE 19:28:04 31° E 19:31:53 10° NNE
Cosmos 1697 Rocket 3.7 19:23:55 10° NNW 19:29:01 33° NE 19:32:44 16° E
SL-8 Rocket 4.1 19:22:58 10° N 19:29:16 64° ENE 19:35:12 12° SSE
Cosmos 2151 4.5 19:26:17 10° NNE 19:29:30 21° ENE 19:30:59 17° E
SPOT 3 Rocket 3.8 19:24:21 10° S 19:29:33 74° WSW 19:34:46 10° NNW
Cosmos 1023 Rocket 4.4 19:25:10 10° SSW 19:30:21 84° ESE 19:35:30 10° NNE
STARLINK-1243 3.7 19:26:44 10° WNW 19:30:51 68° SSW 19:33:24 22° SE
SL-24 R/B - RUBIN 2 4.3 19:25:13 10° SW 19:30:58 88° SE 19:37:28 10° NE
ARGOS 4.2 19:25:59 10° S 19:31:09 46° W 19:36:21 10° NNW
FALCON 9 DEB 3.4 19:28:58 10° SW 19:32:21 48° SSE 19:34:32 19° E
Iridium 2 4.1 19:33:27 19° SSE 19:35:49 42° E 19:39:27 10° NNE
STARLINK-1236 3.7 19:31:43 10° WNW 19:35:50 65° SSW 19:38:11 24° SE
Cosmos 1954 Rocket 3.9 19:31:27 10° S 19:36:37 65° ESE 19:41:47 10° NNE
USA 186 4.3 19:34:10 10° SSW 19:36:43 21° W 19:39:11 10° NW
Cosmos 2181 Rocket 4.1 19:30:42 10° SSE 19:36:44 55° E 19:42:44 10° NNE
MINOTAUR IV R/B 4.5 19:33:26 10° SSW 19:37:52 67° ESE 19:42:20 10° NNE
Cosmos 2366 rocket 4.0 19:37:17 10° N 19:43:25 64° ENE 19:48:11 17° SSE
Cosmos 1076 Rocket 3.6 19:39:37 10° N 19:43:52 59° ENE 19:46:20 24° SSE
STARLINK-1269 3.8 19:41:40 10° WNW 19:45:46 59° SSW 19:47:44 28° SE
Cosmos 1959 Rocket 4.5 19:41:20 10° N 19:47:39 71° ENE 19:52:35 17° SSE
Cosmos 1656 3.8 19:42:23 10° NNW 19:48:04 61° NE 19:51:23 25° SE
Cosmos 1763 Rocket 3.6 19:43:24 10° NNW 19:48:35 63° ENE 19:51:29 25° SE
Landsat 7 4.3 19:46:17 25° SE 19:48:41 45° ENE 19:53:13 10° N
SL-16 R/B 4.4 19:46:26 10° N 19:49:51 16° NNE 19:53:14 10° ENE
STARLINK-1200 3.9 19:46:40 10° WNW 19:50:44 55° SSW 19:52:31 30° SE
Cosmos 540 Rocket 4.2 19:47:18 10° NNW 19:52:08 38° NE 19:54:30 25° ESE
SPOT 1/Viking Rocket 4.0 19:50:06 25° SE 19:52:49 46° ENE 19:57:48 10° N
GRACE-FO 1 4.5 19:50:50 20° S 19:53:18 81° E 19:57:02 10° N
GRACE-FO 2 4.5 19:51:14 20° S 19:53:42 81° E 19:57:25 10° N
STARLINK-1192 4.0 19:51:39 10° WNW 19:55:41 52° SSW 19:57:18 32° SSE
SeaSat 1 4.3 19:51:21 10° NNE 19:55:46 34° NW 20:00:10 10° WSW
Cosmos 1455 3.4 19:56:32 25° E 19:56:32 25° E 19:59:29 10° NNE
Cosmos 2322 Rocket 4.4 19:53:33 10° N 19:56:48 15° NNE 20:00:03 10° ENE
Iridium 4 Rocket 3.0 19:53:10 10° N 19:57:19 57° E 19:59:06 31° SSE
USA 234 3.8 19:52:57 10° ENE 19:58:39 31° SE 20:04:19 10° S
Cosmos 1980 Rocket 3.3 19:54:10 10° NNW 19:59:11 31° NE 20:02:02 20° E
Cosmos 1174 4.2 19:56:01 10° NW 20:00:04 70° SW 20:02:39 27° SSE
STARLINK-1244 4.1 19:56:43 10° WNW 20:00:44 49° SSW 20:02:10 33° SSE
Cosmos 1892 2.7 19:56:54 10° N 20:00:47 68° ENE 20:02:12 36° SSE
Abrixas rocket 4.2 20:00:13 10° WSW 20:02:04 15° SSW 20:02:07 15° SSW
H-2A R/B 4.4 20:01:10 10° SW 20:05:00 21° W 20:08:48 10° NW
Cosmos 1825 3.0 20:01:52 10° N 20:05:20 32° ENE 20:05:39 31° E
STARLINK-1138 4.1 20:01:38 10° WNW 20:05:37 46° SSW 20:06:52 34° SSE
ATLAS 5 CENTAUR R/B 2.1 20:02:01 10° WSW 20:06:16 62° NW 20:11:10 10° NE
Cosmos-2242 3.7 20:08:41 34° E 20:09:00 34° E 20:12:57 10° NNE
COSMOS 2455 4.1 20:03:34 10° NW 20:09:00 36° WSW 20:13:57 12° S
STARLINK-1143 4.2 20:06:37 10° WNW 20:10:34 44° SSW 20:11:39 35° S
Cosmos 489 Rocket 4.4 20:07:07 10° NNW 20:13:22 72° ENE 20:16:28 31° SE
Cosmos 1140 Rocket 4.4 20:08:38 10° SW 20:13:39 49° WNW 20:18:40 10° NNE
ERBS 3.1 20:10:45 10° WNW 20:13:55 38° SW 20:14:20 36° SSW
Cosmos 1356 Rocket 3.8 20:13:46 41° ESE 20:14:09 42° E 20:18:09 10° NNE
STARLINK-1241 4.3 20:11:39 10° WNW 20:15:34 41° SSW 20:16:28 35° S
STARLINK-29 2.8 20:16:27 10° WSW 20:19:40 89° SSE 20:19:44 85° E
SAR-Lupe-2 3.5 20:16:18 10° NNE 20:19:55 87° WNW 20:21:15 37° SSW
STARLINK-1239 4.4 20:16:37 10° WNW 20:20:30 39° SSW 20:21:14 35° S
ATLAS CENTAUR R/B 1.5 20:17:40 10° NW 20:21:32 52° NE 20:22:10 46° ENE
IGS 5A 3.3 20:20:27 46° SSE 20:21:39 81° ENE 20:25:50 10° NNW
Cosmos 1300 4.1 20:20:03 10° SW 20:23:38 37° WNW 20:27:14 10° N
Cosmos 1821 Rocket 4.2 20:17:47 10° N 20:24:04 56° ENE 20:26:40 35° SE
USA 32 4.0 20:19:15 10° N 20:24:30 68° E 20:26:24 39° SSE
Spot 2 Rocket 3.6 20:22:15 27° S 20:25:02 72° WSW 20:30:10 10° NNW
STARLINK-1240 4.4 20:21:38 10° WNW 20:25:27 36° SW 20:26:01 34° SSW
STARLINK-60 3.2 20:24:15 10° W 20:27:32 68° N 20:27:48 64° NNE
Cosmos 841 Rocket 3.5 20:22:29 10° NNW 20:27:48 74° ENE 20:29:32 43° SE
Cosmos 1850 Rocket 3.8 20:24:21 16° SSW 20:28:34 73° ESE 20:33:45 10° NNE
Mayak 1.0 20:27:38 10° NE 20:28:23 13° ENE 20:28:23 13° ENE
Cosmos 2278 4.0 20:25:01 10° NNW 20:30:35 54° NE 20:32:29 38° ESE
Terra 2.3 20:29:53 40° E 20:30:48 45° ENE 20:35:22 10° N
SPOT 5 2.7 20:31:40 51° ESE 20:32:20 58° ENE 20:36:37 10° N
Cosmos 2082 Rocket 3.5 20:34:09 23° E 20:34:09 23° E 20:37:21 10° NE
SL-08 R/B 4.4 20:27:15 10° N 20:33:25 85° W 20:36:44 30° S
Meteor 2-10 Rocket 3.6 20:33:52 42° SSE 20:35:25 61° E 20:40:50 10° NNE
Cosmos 1833 Rocket 3.0 20:39:02 42° ESE 20:39:09 42° ESE 20:44:27 10° NE
CARTOSAT-1 3.5 20:39:31 62° SE 20:40:07 74° ENE 20:44:28 10° N
CZ-4B DEB 4.5 20:40:16 72° W 20:40:16 72° W 20:43:36 10° NNW
Cosmos 1408 2.8 20:43:07 10° NNW 20:46:46 63° W 20:46:55 62° WSW
SL-4 R/B 2.0 20:43:42 10° W 20:46:33 59° WNW 20:46:33 59° WNW
ERS-1 Rocket 2.9 20:47:01 49° S 20:48:23 85° WSW 20:53:28 10° NNW
RESURS DK-1 2.7 20:45:49 10° NW 20:49:53 56° WSW 20:50:15 53° SW
Cosmos 1766 Rocket 3.4 20:47:51 10° N 20:52:21 90° NW 20:52:50 71° S
Cosmos 1570 Rocket 4.3 20:47:39 10° NNW 20:52:58 63° WSW 20:54:32 43° S
Okean 3 Rocket 3.6 20:49:28 10° NNW 20:53:54 74° W 20:54:34 61° SSW
BREEZE M DEB (TANK) 3.4 20:48:58 10° WSW 20:53:25 45° SW 20:53:25 45° SW
Resurs 01 Rocket 4.0 20:55:34 10° SW 20:58:40 19° W 21:01:48 10° NW
CZ-4C R/B 2.9 20:51:47 10° NW 20:58:45 82° NE 21:01:49 41° SE
COSMOS 2406 3.1 20:54:52 20° SSW 20:58:57 88° ESE 21:04:44 10° NNE
Cosmos 1500 Rocket 4.4 20:58:21 10° N 21:01:56 37° NE 21:01:56 37° NE
CZ-2C R/B 4.3 20:58:29 10° N 21:03:00 31° WNW 21:07:30 10° WSW
Cosmos 2151 3.6 21:03:01 10° NNW 21:07:04 48° W 21:07:34 45° WSW
Cosmos 1697 Rocket 2.9 21:07:45 10° NW 21:13:21 60° WSW 21:14:29 50° SSW
Cosmos 2369 3.9 21:07:53 10° NW 21:13:29 61° WSW 21:14:34 51° SSW
Cosmos 1408 Rocket 4.0 21:27:13 10° NNW 21:31:22 59° WNW 21:31:22 59° WNW
Cosmos 1455 3.8 21:31:25 30° W 21:31:48 31° WNW 21:35:16 10° N
Cosmos 540 Rocket 4.3 21:28:59 10° NW 21:33:47 39° WSW 21:34:20 38° WSW
Cosmos 1743 Rocket 3.9 21:29:54 10° N 21:33:44 63° N 21:33:44 63° N
SL-16 R/B 2.7 21:29:57 10° NNW 21:35:27 47° NE 21:36:11 44° ENE
Cosmos 2360 Rocket 3.7 21:31:05 10° NNW 21:35:52 27° NE 21:37:32 24° ENE
Thor Agena Rocket 4.1 21:32:23 10° NNE 21:36:20 44° ENE 21:36:20 44° ENE
Cosmos 1825 4.1 21:37:38 10° NW 21:40:28 24° W 21:40:28 24° W
Cosmos 836 Rocket 4.4 21:36:30 10° NNW 21:41:41 84° NNE 21:41:41 84° NNE
USA 234 3.1 21:35:43 10° ENE 21:42:18 81° SSE 21:48:51 10° WSW
Cosmos 2322 Rocket 2.8 21:36:59 10° NNW 21:42:24 45° NE 21:43:04 43° ENE
Cosmos 1980 Rocket 2.3 21:38:01 10° NW 21:43:35 63° WSW 21:43:48 62° SW
Nadezhda 3 Rocket 4.5 21:41:26 34° SW 21:44:03 57° WNW 21:50:15 10° N
Cosmos 2221 3.5 21:46:37 42° NNE 21:46:37 42° NNE 21:49:37 10° NNE
ASTEX 1 3.7 21:50:00 62° W 21:50:00 62° W 21:54:51 10° NNW
ATLAS 5 CENTAUR R/B 4.0 21:48:04 10° WNW 21:51:53 24° NNW 21:56:11 10° NE
Meteor 2-3 Rocket 4.2 21:49:10 10° NNW 21:54:42 51° W 21:55:21 48° WSW
Cosmos 2333 Rocket 4.2 21:53:22 10° NNW 21:57:33 21° NNE 22:00:27 14° ENE
Cosmos 2084 4.5 21:54:13 10° NW 21:57:21 45° NW 21:57:21 45° NW
ATLAS CENTAUR R/B 3.7 21:57:10 10° WNW 21:58:21 16° W 21:58:21 16° W
Cosmos 1727 Rocket 4.0 22:05:51 63° E 22:05:51 63° E 22:12:02 10° NNE
Mayak -0.1 22:02:05 10° N 22:04:58 42° N 22:04:58 42° N
Cosmos 1153 Rocket 4.4 22:02:00 10° N 22:08:22 84° E 22:08:42 80° SE
Terra 3.3 22:08:46 28° W 22:08:46 28° W 22:12:50 10° NW
Cosmos 2082 Rocket 2.4 22:15:55 63° W 22:16:25 66° NW 22:22:06 10° NNE
Cosmos 1241 Rocket 4.5 22:10:13 10° NW 22:16:30 70° NE 22:17:01 67° E
Sich 1 4.1 22:12:07 10° N 22:15:12 43° N 22:15:12 43° N
Cosmos 1802 Rocket 4.3 22:12:03 10° N 22:18:07 52° ENE 22:18:13 52° ENE
Cosmos 2100 Rocket 4.0 22:14:22 10° N 22:20:36 69° ENE 22:20:40 69° E
Cosmos 1486 Rocket 4.3 22:22:40 66° N 22:22:40 66° N 22:27:20 10° NNE
Cosmos 1833 Rocket 3.7 22:20:38 28° WSW 22:23:07 43° NW 22:28:30 10° NNE
Meteor 2-2 Rocket 4.3 22:24:29 76° NW 22:24:29 76° NW 22:29:54 10° N
Cosmos 968 Rocket 3.9 22:25:40 57° NNE 22:25:40 57° NNE 22:29:50 10° NNE
Cosmos 2173 Rocket 3.9 22:20:15 10° N 22:26:16 70° ENE 22:26:16 70° ENE
Cosmos 1605 Rocket 4.4 22:23:00 10° NNW 22:28:54 50° W 22:29:21 49° WSW
Cosmos 2219 Rocket 3.8 22:28:13 10° NNW 22:32:59 27° NE 22:34:42 23° ENE
ALOS 2 3.8 22:36:50 41° N 22:36:50 41° N 22:39:45 10° NNW
NOSS 2-1 (C) 4.4 22:32:49 10° NW 22:37:02 68° NW 22:37:02 68° NW
NOSS 2-1 (D) 4.4 22:37:04 10° NW 22:41:10 64° NW 22:41:10 64° NW
CZ-4C R/B 3.8 22:40:40 10° WNW 22:46:59 34° WSW 22:46:59 34° WSW
Cosmos 2237 4.4 22:46:25 10° NNW 22:51:39 69° NNE 22:51:39 69° NNE
Cosmos 1000 Rocket 4.5 22:56:39 79° ENE 22:56:39 79° ENE 23:02:43 10° NNE
Cosmos 1633 Rocket 4.5 22:53:29 10° NNW 22:56:12 36° NNW 22:56:12 36° NNW
Cosmos 2322 4.2 22:53:31 10° NNW 22:59:08 51° NE 22:59:14 51° ENE
COSMOS 2428 3.8 22:57:19 10° NNW 23:02:37 37° NE 23:03:37 35° ENE
Cosmos 1607 4.5 23:12:04 45° W 23:13:30 54° NW 23:19:39 10° NE
Cosmos 839 Rocket 4.3 23:14:56 60° E 23:14:56 60° E 23:21:02 10° NE
Meteor 1-20 Rocket 4.4 23:11:48 10° N 23:16:59 69° NNE 23:16:59 69° NNE
SL-16 R/B 3.4 23:14:17 10° NW 23:18:02 33° WNW 23:18:02 33° WNW
Cosmos 2360 Rocket 2.6 23:14:49 10° NNW 23:19:17 56° NW 23:19:17 56° NW
Helios 1B rocket 4.4 23:20:16 10° NNE 23:22:09 25° NE 23:22:09 25° NE
USA 234 3.7 23:18:47 10° ENE 23:25:12 60° NNW 23:31:37 10° W
Cosmos 2322 Rocket 3.4 23:21:12 10° NW 23:24:52 33° WNW 23:24:52 33° WNW
Cosmos 2061 Rocket 4.2 23:25:01 10° NNW 23:30:49 60° WNW 23:30:49 60° WNW
ATLAS 5 CENTAUR R/B 4.3 23:34:04 10° NW 23:38:09 24° NNE 23:42:44 10° ENE
MOS 1-B Rocket 4.1 23:33:41 10° NNE 23:39:56 78° WNW 23:40:21 74° WSW
Cosmos 2333 Rocket 2.4 23:37:12 10° NNW 23:42:25 67° NNE 23:42:25 67° NNE
Cosmos 2237 Rocket 3.6 23:38:40 10° NNW 23:43:48 33° NE 23:46:25 23° E
Cosmos 2233 Rocket 3.9 23:41:48 10° N 23:47:50 81° NW 23:47:50 81° NW
Cosmos 1680 Rocket 4.0 23:44:54 10° NNW 23:49:10 58° N 23:49:10 58° N
Lacrosse 5 rocket 4.1 23:54:19 11° ENE 23:54:19 11° ENE 23:54:32 10° ENE
SL-16 R/B 3.6 23:48:42 31° E 23:50:44 40° ENE 23:56:28 10° N
Cosmos 44 Rocket 4.3 23:53:59 42° NNE 23:53:59 42° NNE 23:57:10 10° NE
